Weather History for KBFL - March, 2014

Change the Weather History Date:

Thursday, March 13, 2014

  Actual Average Record
Temperature  
Mean Temperature 60 °F 57 °F  
Max Temperature 75 °F 68 °F 88 °F (2007)
Min Temperature 46 °F 46 °F 21 °F (1907)
Degree Days  
Heating Degree Days 4    
Month to date heating degree days  
Since 1 July heating degree days  
Cooling Degree Days 0    
Month to date cooling degree days  
Year to date cooling degree days  
Growing Degree Days 10 (Base 50)    
Moisture  
Dew Point 30 °F    
Average Humidity 31    
Maximum Humidity 61    
Minimum Humidity 6    
Precipitation  
Precipitation 0.00 in 0.05 in 0.74 in (1941)
Month to date precipitation 0.56  
Year to date precipitation 2.96  
Snow  
Snow 0.00 in - - ()
Month to date snowfall  
Since 1 July snowfall  
Snow Depth -    
Sea Level Pressure  
Sea Level Pressure 29.99 in    
Wind  
Wind Speed 4 mph (East)    
Max Wind Speed 12 mph    
Max Gust Speed -    
Visibility 10 miles    
Events      
T = Trace of Precipitation, MM = Missing Value Source: NWS Daily Summary

Daily Weather History Graph

Daily Weather History Graph

Search for Another Location

Airport or City:

Trip Planner

Search our weather history database for the weather conditions in past years. The results will help you decide how hot, cold, wet, or windy it might be!

Date:

Astronomy

Mar. 13, 2014 Rise Set
Actual Time 7:09 AM PDT 7:02 PM PDT
Civil Twilight 6:44 AM PDT 7:27 PM PDT
Nautical Twilight 6:14 AM PDT 7:57 PM PDT
Astronomical Twilight 5:45 AM PDT 8:26 PM PDT
Moon 4:36 PM PDT (3/13) 5:14 AM PDT (3/13)
Length of Visible Light 12h 43m
Length of Day
11h 52m
Waxing Gibbous, 92% of the Moon is Illuminated
Mar 13
Waxing Gibbous
Mar 16
Full
Mar 23
Last Quarter
Mar 30
New
Apr 7
First Quarter

Hourly Weather History & Observations

Time (PDT) Temp. Dew Point Humidity Pressure Visibility Wind Dir Wind Speed Gust Speed Precip Events Conditions
12:54 AM 53.1 °F 30.0 °F 41% 29.97 in 10.0 mi SSE 3.5 mph - N/A   Clear
1:54 AM 54.0 °F 33.1 °F 45% 29.98 in 10.0 mi ESE 4.6 mph - N/A   Partly Cloudy
2:54 AM 57.0 °F 32.0 °F 39% 29.98 in 10.0 mi Calm Calm - N/A   Clear
3:54 AM 53.1 °F 30.0 °F 41% 29.96 in 10.0 mi ENE 3.5 mph - N/A   Clear
4:54 AM 55.0 °F 33.1 °F 43% 29.97 in 10.0 mi East 3.5 mph - N/A   Partly Cloudy
5:54 AM 51.1 °F 35.1 °F 54% 29.98 in 10.0 mi SSW 3.5 mph - N/A   Clear
6:54 AM 48.0 °F 35.1 °F 61% 29.99 in 10.0 mi Calm Calm - N/A   Clear
7:54 AM 52.0 °F 36.0 °F 54% 30.00 in 10.0 mi ESE 6.9 mph - N/A   Clear
8:54 AM 54.0 °F 36.0 °F 51% 30.02 in 10.0 mi SSE 5.8 mph - N/A   Clear
9:54 AM 61.0 °F 34.0 °F 36% 30.02 in 10.0 mi SSE 10.4 mph - N/A   Clear
10:54 AM 63.0 °F 33.1 °F 33% 30.03 in 10.0 mi SSW 5.8 mph - N/A   Clear
11:54 AM 66.9 °F 33.1 °F 28% 30.01 in 10.0 mi South 4.6 mph - N/A   Clear
12:54 PM 69.1 °F 32.0 °F 25% 30.00 in 10.0 mi Variable 3.5 mph - N/A   Clear
1:54 PM 71.1 °F 28.0 °F 20% 29.97 in 10.0 mi Calm Calm - N/A   Clear
2:54 PM 73.9 °F 24.1 °F 16% 29.95 in 10.0 mi North 6.9 mph - N/A   Clear
3:54 PM 75.0 °F 25.0 °F 16% 29.94 in 10.0 mi NW 8.1 mph - N/A   Clear
4:54 PM 75.9 °F 21.9 °F 13% 29.94 in 10.0 mi NW 10.4 mph - N/A   Clear
5:54 PM 75.0 °F 23.0 °F 14% 29.94 in 10.0 mi NNW 11.5 mph - N/A   Clear
6:54 PM 71.1 °F 25.0 °F 18% 29.96 in 10.0 mi NNW 5.8 mph - N/A   Clear
7:54 PM 68.0 °F 24.1 °F 19% 29.97 in 10.0 mi North 6.9 mph - N/A   Clear
8:54 PM 62.1 °F 27.0 °F 26% 29.99 in 10.0 mi NNE 5.8 mph - N/A   Clear
9:54 PM 64.0 °F 30.0 °F 28% 30.00 in 10.0 mi ENE 4.6 mph - N/A   Clear
10:54 PM 57.9 °F 28.9 °F 33% 30.02 in 10.0 mi SE 3.5 mph - N/A   Clear
11:54 PM 57.9 °F 30.0 °F 35% 30.04 in 10.0 mi Calm Calm - N/A   Clear